Location: New Town
(33.2710°N, 90.7534°W)
Time: 02:41:41
(UTC+00:00)

Altair - All Passes

Search period start: 12 May 2021 00:00
Search period end: 22 May 2021 00:00
Orbit: 1501 x 1683 km, 47.2° (Epoch: 11 May)

Date Brightness Start Highest point End Pass type
(mag) Time Alt. Az. Time Alt. Az. Time Alt. Az.
12 May - 03:40:17 10° SSW 03:49:31 42° SE 03:58:49 10° ENE visible
12 May - 05:43:57 10° WSW 05:54:05 69° NNW 06:04:11 10° NE visible
12 May - 07:51:16 10° WNW 08:00:31 38° N 08:09:37 10° ENE visible
12 May - 09:58:16 10° NW 10:07:42 42° NNE 10:16:47 10° E visible
12 May - 12:03:31 10° NW 12:13:29 89° SW 12:23:00 10° SE daylight
12 May - 14:09:53 10° WNW 14:17:17 25° SW 14:24:29 10° S daylight
13 May - 03:15:23 10° SSW 03:24:23 39° SE 03:33:27 10° ENE visible
13 May - 05:18:40 10° WSW 05:28:49 73° NNW 05:38:58 10° NE visible
13 May - 07:25:49 10° WNW 07:35:09 39° N 07:44:19 10° NE visible
13 May - 09:32:57 10° NW 09:42:20 41° NNE 09:51:26 10° E visible
13 May - 11:38:16 10° NW 11:48:16 85° NE 11:57:50 10° SE daylight
13 May - 13:44:22 10° WNW 13:52:12 28° SW 13:59:49 10° S daylight
14 May - 02:50:32 10° S 02:59:16 35° SE 03:08:03 10° ENE visible
14 May - 04:53:24 10° WSW 05:03:33 78° NW 05:13:45 10° NE visible
14 May - 07:00:22 10° W 07:09:45 40° NNW 07:19:01 10° NE visible
14 May - 09:07:38 10° NW 09:16:59 40° NNE 09:26:02 10° E visible
14 May - 11:13:01 10° NW 11:23:04 80° NE 11:32:39 10° ESE daylight
14 May - 13:18:54 10° WNW 13:27:08 32° SW 13:35:06 10° S daylight
15 May - 02:25:44 10° S 02:34:09 31° SE 02:42:38 10° ENE visible
15 May - 04:28:09 10° SW 04:38:18 83° NW 04:48:31 10° NE visible
15 May - 06:34:56 10° W 06:44:23 41° NNW 06:53:44 10° NE visible
15 May - 08:42:18 10° NW 08:51:36 39° N 09:00:39 10° ENE visible
15 May - 10:47:46 10° NW 10:57:49 75° NE 11:07:27 10° ESE daylight
15 May - 12:53:29 10° WNW 13:02:02 35° SW 13:10:19 10° S daylight
16 May - 02:00:59 10° S 02:09:02 28° SE 02:17:08 10° ENE visible
16 May - 04:02:56 10° SW 04:13:04 88° NW 04:23:18 10° NE visible
16 May - 06:09:30 10° W 06:19:00 42° NNW 06:28:27 10° NE visible
16 May - 08:16:57 10° WNW 08:26:13 38° N 08:35:16 10° ENE visible
16 May - 10:22:32 10° NW 10:32:35 71° NNE 10:42:13 10° ESE visible
16 May - 12:28:05 10° WNW 12:36:56 39° SW 12:45:30 10° SSE daylight
17 May - 01:36:19 10° S 01:43:56 25° SE 01:51:37 10° ENE visible
17 May - 03:37:44 10° SW 03:47:51 87° SE 03:58:04 10° NE visible
17 May - 05:44:04 10° W 05:53:39 44° NNW 06:03:11 10° NE visible
17 May - 07:51:36 10° WNW 08:00:50 37° N 08:09:53 10° ENE visible
17 May - 09:57:17 10° NW 10:07:19 66° NNE 10:16:58 10° ESE visible
17 May - 12:02:43 10° WNW 12:11:50 43° SW 12:20:38 10° SSE daylight
18 May - 01:11:43 10° S 01:18:50 22° SE 01:26:02 10° ENE visible
18 May - 03:12:34 10° SW 03:22:38 81° SE 03:32:50 10° NE visible
18 May - 05:18:39 10° W 05:28:18 46° NNW 05:37:55 10° NE visible
18 May - 07:26:13 10° WNW 07:35:26 37° N 07:44:29 10° ENE visible
18 May - 09:32:02 10° NW 09:42:03 62° NNE 09:51:41 10° ESE visible
18 May - 11:37:22 10° WNW 11:46:43 48° SW 11:55:43 10° SSE daylight
19 May - 00:47:13 10° SSE 00:53:45 20° ESE 01:00:21 10° E daylight
19 May - 02:47:26 10° SW 02:57:25 76° SE 03:07:35 10° NE visible
19 May - 04:53:14 10° W 05:02:56 48° NNW 05:12:40 10° NE visible
19 May - 07:00:51 10° WNW 07:10:03 37° N 07:19:05 10° ENE visible
19 May - 09:06:48 10° NW 09:16:47 59° NNE 09:26:23 10° ESE visible
19 May - 11:12:03 10° WNW 11:21:35 52° SW 11:30:46 10° SSE daylight
20 May - 00:22:50 10° SSE 00:28:40 17° ESE 00:34:33 10° E daylight
20 May - 02:22:19 10° SW 02:32:13 70° SE 02:42:20 10° ENE visible
20 May - 04:27:51 10° W 04:37:36 50° NNW 04:47:25 10° NE visible
20 May - 06:35:27 10° WNW 06:44:39 36° N 06:53:42 10° ENE visible
20 May - 08:41:33 10° NW 08:51:29 56° NNE 09:01:05 10° ESE visible
20 May - 10:46:44 10° WNW 10:56:27 57° SW 11:05:47 10° SSE daylight
20 May - 12:56:53 10° WSW 12:59:40 11° WSW 13:02:27 10° SW daylight
20 May - 23:58:38 10° SSE 00:03:35 15° ESE 00:08:36 10° E daylight
21 May - 01:57:15 10° SW 02:07:03 65° SE 02:17:03 10° ENE visible
21 May - 04:02:28 10° W 04:12:16 53° NNW 04:22:10 10° NE visible
21 May - 06:10:03 10° WNW 06:19:15 36° N 06:28:19 10° ENE visible
21 May - 08:16:18 10° NW 08:26:10 53° NNE 08:35:45 10° E visible
21 May - 10:21:28 10° WNW 10:31:18 63° SW 10:40:46 10° SSE visible
21 May - 12:30:20 10° W 12:34:37 14° WSW 12:38:52 10° SSW daylight
21 May - 23:34:44 10° SE 23:38:32 13° ESE 23:42:21 10° E daylight
